Regional Weather Roundup
Issued by NWS

Home | Current Version | Previous Version | Text Only | Print | Product List | Glossary On
Versions: 1 2 3 4 5 6 7 8 9 10 11 12 13 14 15 16 17 18 19 20 21 22 23 24 25 26 27 28 29 30 31 32 33 34 35 36 37 38 39 40 41 42 43 44 45 46 47 48 49 50
000
ASUS44 KMEG 131710
RWRTN
TENNESSEE HOURLY STATE WEATHER ROUNDUP
NATIONAL WEATHER SERVICE MEMPHIS TN
1100 AM CST SAT FEB 13 2016

TNZ002-004-019-021-049-052-054-088>092-131800-
WEST TENNESSEE

CITY           SKY/WX    TMP DP  RH WIND       PRES   REMARKS
MEMPHIS INTL   CLOUDY    33  10  38 NE10      30.59S WCI  25
NWS MEMPHIS      N/A     30 N/A N/A MISG        N/A
JACKSON        CLOUDY    27   8  44 NE9       30.58F WCI  18
DYERSBURG      CLOUDY    25   9  50 E9        30.64S WCI  15
UNION CITY     SUNNY     23   7  50 NE10      30.61S WCI  12
PARIS          SUNNY     21   3  45 NE9       30.59S WCI  11
LEXINGTON      SUNNY     25   0  33 N9        30.56F WCI  15
$$

TNZ008-025-027-028-033-062-065-066-131800-
NORTH MIDDLE TENNESSEE

CITY           SKY/WX    TMP DP  RH WIND       PRES   REMARKS
NASHVILLE      SUNNY     28   3  34 N13       30.56S WCI  17
CLARKSVILLE    SUNNY     24   4  42 N9        30.59S WCI  14
SMYRNA         SUNNY     27   6  40 N13       30.57S WCI  16
COOKEVILLE     SUNNY     25   7  46 N7        30.47F WCI  17
CROSSVILLE     SUNNY     22   6  50 NE10G17   30.40F WCI  11
$$

TNZ061-075-076-078-094-096-097-131800-
SOUTH MIDDLE TENNESSEE

CITY           SKY/WX    TMP DP  RH WIND       PRES   REMARKS
FAYETTEVILLE   SUNNY     28   3  34 NW9G15    30.50R WCI  20
TULLAHOMA      SUNNY     27   0  31 N9        30.48S WCI  17
WINCHESTER     SUNNY     27   7  43 N9        30.49R WCI  17
MCMINNVILLE    SUNNY     27   3  36 NE12      30.48S WCI  16
COLUMBIA       SUNNY     27   9  46 VRB5      30.52F WCI  21
SHELBYVILLE    SUNNY     28   7  40 N10       30.53S WCI  19
$$

TNZ017-018-042-046-047-131800-
NORTHEAST TENNESSEE

CITY           SKY/WX    TMP DP  RH WIND       PRES   REMARKS
TRI CITIES     MOSUNNY   22   4  46 W8        30.38S WCI  12
$$

TNZ012-013-036-069-073-074-131800-
CENTRAL EAST TENNESSEE

CITY           SKY/WX    TMP DP  RH WIND       PRES   REMARKS
KNOXVILLE      MOSUNNY   28  10  46 N7        30.45S WCI  21
OAK RIDGE      SUNNY     29   7  39 NW6       30.47S WCI  23
GATLINBURG     MOSUNNY   25  10  54 W7        30.44S WCI  17
MORRISTOWN     MOSUNNY   23   7  50 N7G16     30.41S WCI  15
$$

TNZ083-085-099-131800-
SOUTHEAST TENNESSEE

CITY           SKY/WX    TMP DP  RH WIND       PRES   REMARKS
CHATTANOOGA    SUNNY     33   6  32 NE12      30.46S WCI  24
$$

SKY/WX REPORTED AS FAIR MEANS FEW OR NO CLOUDS BELOW
12 THOUSAND FEET.




USA.gov is the U.S. government's official web portal to all federal, state and local government web resources and services.